Volver al catálogo

SL-12 R/B

AUX MOTOR

ActivoUNKNOWN
NORAD 4790·ROCKET BODY·🇷🇺 Russia

Lanzado Dec 2, 1970 desde Baikonur Cosmodrome

Loading…

Próximos Pases (próximas 24 horas)

TLE

ActualizadoSource: Space-Track

Época: Sep 14, 2026, 05:01 UTC

1 04790U 70103C   26257.20927386  .00000011  00000-0  23680-2 0  9993
2 04790  51.5894 196.9052 1784860 193.2830 161.4170  9.05046557844159

Sigue SL-12 R/B en tiempo real con AllMySat

Download on the App Store